User: anonymous   Login
Location: Elstree
(51.6403°N, 0.2969°W)
Time: 14:43:33
(UTC+00:00)
Language:

Cosmos 2221 Rocket - Orbit

View from above orbital plane
View from above orbital plane
View from above satellite
View from above satellite

Ground track
Ground track

The orbit data is extracted from the following two-line orbital elements,

1 22237U 92080B   21137.47713399  .00000094  00000-0  96733-5 0  9998
2 22237  82.5143 227.0997 0019084 204.1199 155.9121 14.78444018534754
Epoch (UTC): 17 May 2021 11:27:04
Eccentricity: 0.0019084
inclination: 82.5143°
perigee height: 621 km
apogee height: 647 km
right ascension of ascending node: 227.0997°
argument of perigee: 204.1199°
revolutions per day: 14.78444018
mean anomaly at epoch: 155.9121°
orbit number at epoch: 53475

The dashed part of the orbit path shows where the satellite is in the earth's shadow,  

DLR